Location: Karaa?a�
(36.7158°N, 30.4165°E)
Time: 08:10:02
(UTC+00:00)

ARGOS Delta rocket - Pass Details

Date: 09 April 2020
Orbit: 634 x 839 km, 96.4° (Epoch: 01 June)

Event Time Altitude Azimuth Distance (km) Brightness Sun altitude
Rises 17:02:07 0° 161° (SSE) 3,260 6.9 -7.5°
Reaches altitude 10° 17:04:24 10° 159° (SSE) 2,361 6.2 -8.0°
Maximum altitude 17:09:38 69° 77° (ENE) 875 4.1 -9.0°
Drops below altitude 10° 17:15:05 10° 355° (N) 2,454 6.9 -10.0°
Sets 17:17:29 0° 353° (N) 3,398 7.7 -10.5°
